Regional Weather Roundup
Issued by NWS Upton, NY

Current Version | Previous Version | Text Only | Print | Product List | Glossary On
Versions: 1 2 3 4 5 6 7 8 9 10 11 12 13 14 15 16 17 18 19 20 21 22 23 24 25 26 27
000
ASUS41 KOKX 200705
RWROKX

Regional Weather Roundup
National Weather Service New York NY
300 AM EDT FRI APR 20 2018

Note: "FAIR" indicates few or no clouds below 12,000 feet with no
significant weather and/or obstructions to visibility.

NYZ071-072-176-178-NJZ106-104-200800-
New York City Metro Area

CITY           SKY/WX    TMP DP  RH WIND       PRES   REMARKS
Central Park   FAIR      37  23  56 W9        30.05R WCI  30
Bronx Bot Gard   N/A     36  23  60 NW5       30.03  WCI  32
Bronx Lehman C   N/A     36  25  64 NW10        N/A  WCI  28
LaGuardia Arpt FAIR      39  23  52 W17G26    30.03R WCI  30
Queens College   N/A     37  23  56 W16         N/A  WCI  28
Kennedy Intl   FAIR      37  23  56 W18G25    30.04R WCI  27
Breezy Point     N/A     36 N/A N/A W10G17      N/A  WCI  28
Brooklyn Coll    N/A     37  25  60 W12         N/A  WCI  30
Staten Island    N/A     37  25  60 W10         N/A  WCI  30
Newark/Liberty FAIR      37  24  59 W12       30.05R WCI  29
Teterboro      FAIR      37  24  59 W9        30.03R WCI  30
$$

NYZ177-179-078>081-200800-
Long Island New York

CITY           SKY/WX    TMP DP  RH WIND       PRES   REMARKS
Jones Beach      N/A     37 N/A N/A NW16        N/A  WCI  28
Wantagh          N/A     37  25  60 W12         N/A  WCI  30
Hempstead        N/A     37  27  65 W3        30.05
Matinecock Pt    N/A     37 N/A N/A W22         N/A  WCI  27
Farmingdale    FAIR      36  24  62 NW8       30.01S WCI  30
MacArthur/ISP  FAIR      36  25  64 W8        29.99R WCI  30
Stony Brook      N/A     37  27  65 NW10        N/A  WCI  30
Shirley        FAIR      36  27  69 NW9       29.98S WCI  29
Mt Sinai Harb    N/A    N/A N/A N/A NW12G17     N/A
Westhampton    FAIR      34  26  72 W7        29.98S WCI  28
East Hampton   FAIR      37  24  61 NW10G25   29.95R WCI  29
Southold         N/A     37  27  65 NW16        N/A  WCI  28
Montauk          N/A     39  26  59 NW14G25   29.95R WCI  31
$$

NYZ052-065-067-200800-
Hudson Valley

CITY           SKY/WX    TMP DP  RH WIND       PRES   REMARKS
White Plains   FAIR      35  23  61 W10       29.98S WCI  27
Larchmont Harb   N/A     36 N/A N/A W13         N/A  WCI  27
Croton On Huds   N/A     37 N/A N/A SW16        N/A  WCI  28
Somers           N/A     34  23  64 W8          N/A  WCI  27
Brewster         N/A     32  21  64 NW9         N/A  WCI  24
Newburgh       CLEAR     34  25  69 W9        30.01R WCI  26
Montgomery     FAIR      34  21  59 NW5       30.01R WCI  30
Otisville        N/A     32  23  69 NW3         N/A
Warwick          N/A     32  27  80 NW8         N/A  WCI  25
Suffern          N/A     34  25  69 W9          N/A  WCI  26
Poughkeepsie   FAIR      35  18  49 NW9       30.00R WCI  28
Albany         CLOUDY    33  23  66 NW12      30.00R WCI  24
$$

NJZ001-105-106-008-010-013-015-019>022-104-200800-
New Jersey

CITY           SKY/WX    TMP DP  RH WIND       PRES   REMARKS
Newark/Liberty FAIR      37  24  59 W12       30.05R WCI  29
Teterboro      FAIR      37  24  59 W9        30.03R WCI  30
Caldwell       MOCLDY    36  23  59 NW8G18    30.05R WCI  30
Somerville     MOCLDY    36  23  59 VRB5      30.06R WCI  32
Linden         FAIR      37  23  58 NW12G17   30.06R WCI  29
Perth Amboy      N/A     37 N/A N/A NW13        N/A  WCI  29
Sussex         MOCLDY    34  24  67 NW5       30.03S WCI  30
Andover          N/A     34  23  64 NW5       30.04R WCI  30
Trenton        MOCLDY    36  26  67 NW5       30.08R WCI  32
Millville      CLOUDY    39  25  57 NW8       30.12R WCI  33
Atlantic City  FAIR      37  26  64 W7        30.11R WCI  32
Wrightstown    MOCLDY    37  26  65 NW8       30.07  WCI  30
Toms River     FAIR      37  25  61 NW12      30.09R WCI  29
Belmar         FAIR      36  26  67 W10G17    30.08R WCI  28
$$

PAZ047>061-062-071-200800-
Eastern Pennsylvania

CITY           SKY/WX    TMP DP  RH WIND       PRES   REMARKS
Philadelphia   FAIR      39  22  50 NW15G23   30.13R WCI  31
Allentown      FAIR      36  20  52 NW9       30.09R WCI  29
Scranton       FLURRIES  31  27  85 NW9       30.07S WCI  23
$$

CTZ002-004>006-009-010-012-RIZ004-006-007-MAZ004-011-015-200800-
Southern New England

 In CT

CITY           SKY/WX    TMP DP  RH WIND       PRES   REMARKS
Bradley Intl   FAIR      35  24  64 NW14      29.93S WCI  26
Hartford       CLOUDY    37  25  61 NW9       29.95S WCI  30
Danbury        FAIR      34  22  61 W6        29.98S WCI  29
Wtrbury/Oxford FAIR      32  22  66 W7        29.94F WCI  26
Norwalk Harbor   N/A     36 N/A N/A W12         N/A  WCI  27
Bridgeport     FAIR      36  25  64 W7        29.98S WCI  30
Meriden        FAIR      35  22  58 NW13      29.96R WCI  26
New Haven      FAIR      38  23  55 NW10G18   29.96F WCI  31
Chester        FAIR      34  23  64 NW8       29.93S WCI  27
Groton         FAIR      36  24  62 NW13      29.93R WCI  27
Willimantic    FAIR      35  27  72 VRB3      29.92S

 In RI

CITY           SKY/WX    TMP DP  RH WIND       PRES   REMARKS
Providence     FAIR      37  30  75 NW8       29.89S WCI  31
Block Island     N/A     37  27  67 NW14G23   29.92R WCI  28
Westerly       FAIR      37  27  67 VRB5      29.92R WCI  33

In MA

CITY           SKY/WX    TMP DP  RH WIND       PRES   REMARKS
Boston         CLOUDY    38  29  70 W16       29.86R WCI  29
Worcester      FAIR      31  25  78 W17       29.85R WCI  19
Westfield      CLOUDY    34  25  69 NW10      29.92S WCI  26
Provincetown   CLOUDY    40  31  70 NW18G25   29.84R WCI  31
Nantucket      CLOUDY    39  34  82 NW16      29.85R WCI  30
$$

ANZ330-335-338-340-345-350-353-355-200800-
Coastal Marine Observations


STATION/POSITION TIME  SKY/WX   TEMP    WIND        PRES    VSBY  WAVE
                                AIR SEA DIR/SP/G                  HT/PER
                 (UTC)          (F)     (DEG/KT/KT) (MB)    (MI)  (FT/S)
NY Harb Entrance 0650            40 44  300/ 21/ 29 1017.2          4/ 4
20 S Fire Island 0650            40 42  300/ 23/ 29 1015.8          5/ 5
23 SSW Montauk P 0650            40 42  290/ 21/ 25 1014.0          5/ 8
15 E Barnegat Li 0630               44                N/A           4/ 5
Hudson Canyon    0650            42 44  320/ 25/ 29 1015.2          9/ 7
Kings Point      0630            38 44  340/ 12/ 16 1017.5
Execution Rocks  NOT AVBL
Western LI Sound NOT AVBL
Central LI Sound 0630            39     300/ 19/ 27   N/A           3
Robbins Reef     0630            38     280/ 14/ 17 1017.7
$$


>>>>>>>>>>>>>>>>>>>>>>>>>>>> KEY <<<<<<<<<<<<<<<<<<<<<<<<<<<
>                                                          <
>     SKY/WX - Sky Condition/Present Weather               <
>     TMP    - Temperature in Fahrenheit                   <
>     DP     - Dew Point in Fahrenheit                     <
>     RH     - Relative Humidity in Percent                <
>     WIND   - Direction (from) and Speed in MPH           <
>     PRES   - Mean Sea Level Pressure (inches of Hg)      <
>     WCI    - Wind Chill Index                            <
>     VSB    - Visibility in Miles                         <
>     HX     - Heat Index                                  <
>     TC     - Temperature in Celsius                      <
>     VRB    - Varibale Wind Direction                     <
>                                                          <
>>>>>>>>>>>>>>>>>>>>>>>>>>>> KEY <<<<<<<<<<<<<<<<<<<<<<<<<<<




USA.gov is the U.S. government's official web portal to all federal, state and local government web resources and services.